Voltar ao catálogo

NOAA 16 DEB

AtivoPO
NORAD 41207·DEBRIS·🇺🇸 United States

Lançado Sep 21, 2000 de Vandenberg Space Force Base

Loading…

Próximas Passagens (próximas 24 horas)

TLE

AtualizadoSource: Space-Track

Época: Sep 14, 2026, 05:39 UTC

1 41207U 00055DL  26257.23576132  .00018020  00000-0  20668-2 0  9990
2 41207  98.8942 173.2365 0029146 340.7292  19.2815 14.85649355565701

Acompanhe NOAA 16 DEB em tempo real com AllMySat

Download on the App Store